Regional Weather Roundup
Issued by NWS State College, PA

Home | Current Version | Previous Version | Text Only | Print | Product List | Glossary On
Versions: 1 2 3 4 5 6 7 8 9 10 11 12 13 14 15 16 17 18 19 20 21 22 23 24 25 26 27 28 29 30 31 32 33 34 35 36 37 38 39 40 41 42 43 44 45 46 47 48 49 50
000
ASUS41 KCTP 251403
RWRCTP

REGIONAL WEATHER ROUNDUP
NATIONAL WEATHER SERVICE STATE COLLEGE PA
1000 AM EDT MON JUL 25 2016

Note: "fair" indicates few or no clouds below 12,000 feet with no
significant weather and/or obstructions to visibility.

* = STATION THAT DOES NOT REPORT PRECIPITATION /E.G. RAIN...SNOW...ETC/
    THUNDER OR FOG.

PAZ002>004-007>009-013>016-020>023-029>032-251500-
WESTERN PENNSYLVANIA

CITY           SKY/WX    TMP DP  RH WIND       PRES   REMARKS
ERIE           CLOUDY    82  73  74 SW10      29.92S
MEADVILLE      CLOUDY    78  72  81 SW8       29.97F
FRANKLIN*      CLOUDY    79  72  78 SW7       30.01F
NEW CASTLE     FAIR      83  75  77 VRB7      29.97F
BEAVER COUNTY  MOSUNNY   82  73  74 SW8       30.00S
BUTLER*        SUNNY     82  75  78 W7        30.02F
PITTSBURGH INT MOSUNNY   83  74  74 W6        29.99S
PITTSBURGH     SUNNY     83  74  74 VRB6      29.99S
INDIANA*       SUNNY     79  75  89 W8        30.04S
LATROBE        MOSUNNY   68  75 100 SW10      30.01F
WASHINGTON CO* SUNNY     84  75  74 SW8       30.01S
$$

PAZ004>006-010>012-017>019-024>028-033>037-041-042-045-046-049>053-251500-
CENTRAL PENNSYLVANIA

CITY           SKY/WX    TMP DP  RH WIND       PRES   REMARKS
BRADFORD       MOSUNNY   78  70  76 W9G16     30.00F
DUBOIS         CLOUDY    78  72  81 SW9       30.00F
CLEARFIELD     CLOUDY    77  70  79 SW9       30.00F
JOHNSTOWN      CLOUDY    79  71  76 SW9       30.06S
ALTOONA        CLOUDY    83  72  69 W8        30.01F
STATE COLLEGE  SUNNY     79  73  83 S6        29.98F
WILLIAMSPORT   MOSUNNY   81  70  69 E5        29.93F
SELINSGROVE    SUNNY     83  74  74 VRB3      29.96S
FT INDIANTOWN  NOT AVBL
CAPITAL CITY   SUNNY     86  73  65 SW6       29.95S
HARRISBURG     PTSUNNY   85  75  72 CALM      29.95S
YORK           SUNNY     85  73  67 VRB3      29.96S
$$

PAZ038>040-043-044-047-048-054-055-060>062-067>071-251500-
EASTERN PENNSYLVANIA

CITY           SKY/WX    TMP DP  RH WIND       PRES   REMARKS
SCRANTON       MOSUNNY   82  69  64 SW8       29.96S
MOUNT POCONO   SUNNY     80  65  59 W8        30.01R
ALLENTOWN      SUNNY     86  69  56 W7        29.94S
QUAKERTOWN*    SUNNY     84  73  70 CALM      29.97R
READING        CLOUDY    86  71  60 VRB7      29.94R
LANCASTER      SUNNY     83  73  72 W7        29.96R
COATESVILLE    SUNNY     81  73  78 CALM      29.99S
POTTSTOWN      SUNNY     81  74  79 CALM      29.98R
BLUE BELL      MOSUNNY   79  73  83 CALM      29.96R
DOYLESTOWN     MOSUNNY   79  73  82 SW6       29.95S
WILLOW GROVE   NOT AVBL
NORTH PHILA    PTSUNNY   82  76  81 S3        29.97S
PHILADELPHIA   MOSUNNY   82  75  79 S8        29.96S
$$




USA.gov is the U.S. government's official web portal to all federal, state and local government web resources and services.